Beaver, WV

8:42 PM EST on January 23, 2017 (GMT -0500)
Raleigh County Memorial

Weather History for KBKW - May, 2013

Change the Weather History Date:

Thursday, May 16, 2013

  Actual Average Record
Temperature  
Mean Temperature 66 °F 60 °F  
Max Temperature 75 °F 70 °F 85 °F (1911)
Min Temperature 56 °F 49 °F 30 °F (1984)
Degree Days  
Heating Degree Days 0 6  
Month to date heating degree days 132 121  
Since 1 July heating degree days 5221 5230  
Cooling Degree Days 1 1  
Month to date cooling degree days 9 10  
Year to date cooling degree days 25 20  
Growing Degree Days 16 (Base 50)    
Moisture  
Dew Point 53 °F    
Average Humidity 71    
Maximum Humidity 93    
Minimum Humidity 49    
Precipitation  
Precipitation 0.30 in 0.16 in 1.92 in (2010)
Month to date precipitation 2.92 2.34  
Year to date precipitation 13.99 14.84  
Snow  
Snow 0.00 in - - ()
Month to date snowfall 0.0  
Since 1 September snowfall 72.0  
Snow Depth 0.00 in    
Sea Level Pressure  
Sea Level Pressure 29.98 in    
Wind  
Wind Speed 6 mph (West)    
Max Wind Speed 23 mph    
Max Gust Speed 31 mph    
Visibility 8 miles    
Events Rain    
T = Trace of Precipitation, MM = Missing Value Source: NWS Daily Summary

Daily Weather History Graph

Daily Weather History Graph

Search for Another Location

Airport or City:

Trip Planner

Search our weather history database for the weather conditions in past years. The results will help you decide how hot, cold, wet, or windy it might be!

Date:

Astronomy

May. 16, 2013 Rise Set
Actual Time 6:13 AM EDT 8:28 PM EDT
Civil Twilight 5:44 AM EDT 8:58 PM EDT
Nautical Twilight 5:07 AM EDT 9:34 PM EDT
Astronomical Twilight 4:28 AM EDT 10:14 PM EDT
Moon 11:43 AM EDT (5/16) 12:50 AM EDT (5/16)
Length of Visible Light 15h 14m
Length of Day
14h 15m
Waxing Crescent, 35% of the Moon is Illuminated
May 16
Waxing Crescent
May 18
First Quarter
May 25
Full
May 31
Last Quarter
Jun 8
New

Hourly Weather History & Observations

Time (EDT) Temp. Dew Point Humidity Pressure Visibility Wind Dir Wind Speed Gust Speed Precip Events Conditions
12:51 AM 64.0 °F 46.0 °F 52% 29.92 in 10.0 mi WSW 3.5 mph - N/A   Clear
1:51 AM 64.0 °F 46.0 °F 52% 29.91 in 10.0 mi WSW 4.6 mph - N/A   Clear
2:51 AM 64.9 °F 46.9 °F 52% 29.89 in 10.0 mi WSW 6.9 mph - N/A   Clear
3:51 AM 62.1 °F 46.9 °F 58% 29.91 in 10.0 mi West 8.1 mph - N/A   Clear
4:51 AM 62.1 °F 45.0 °F 53% 29.90 in 10.0 mi WSW 5.8 mph - N/A   Clear
5:51 AM 63.0 °F 45.0 °F 52% 29.90 in 10.0 mi WSW 6.9 mph - N/A   Clear
6:51 AM 61.0 °F 46.0 °F 58% 29.92 in 10.0 mi WSW 6.9 mph - N/A   Clear
7:51 AM 62.1 °F 48.0 °F 60% 29.95 in 10.0 mi West 4.6 mph - N/A   Mostly Cloudy
8:51 AM 68.0 °F 50.0 °F 52% 29.94 in 10.0 mi WSW 6.9 mph - N/A   Clear
9:51 AM 70.0 °F 51.1 °F 51% 29.94 in 10.0 mi WSW 9.2 mph - N/A   Partly Cloudy
10:51 AM 71.1 °F 52.0 °F 51% 29.95 in 10.0 mi West 10.4 mph 16.1 mph N/A   Mostly Cloudy
11:51 AM 73.9 °F 53.1 °F 48% 29.94 in 10.0 mi West 9.2 mph 20.7 mph N/A   Mostly Cloudy
12:51 PM 72.0 °F 54.0 °F 53% 29.96 in 10.0 mi West 11.5 mph - N/A   Overcast
1:51 PM 72.0 °F 54.0 °F 53% 29.96 in 10.0 mi WSW 9.2 mph - N/A   Mostly Cloudy
2:51 PM 73.0 °F 54.0 °F 51% 29.94 in 10.0 mi SW 10.4 mph - N/A   Partly Cloudy
3:51 PM 75.0 °F 55.0 °F 50% 29.93 in 10.0 mi West 11.5 mph 20.7 mph N/A   Partly Cloudy
4:51 PM 73.9 °F 55.0 °F 52% 29.94 in 10.0 mi WSW 9.2 mph - N/A   Partly Cloudy
5:51 PM 72.0 °F 53.1 °F 51% 29.94 in 10.0 mi West 12.7 mph 18.4 mph N/A   Overcast
6:29 PM 60.8 °F 57.2 °F 88% 30.07 in 6.0 mi North 13.8 mph - N/A Rain Light Rain
6:51 PM 59.0 °F 57.0 °F 93% 30.05 in 3.0 mi NW 6.9 mph - 0.04 in Rain Light Rain
6:54 PM 59.0 °F 57.2 °F 94% 30.10 in 1.8 mi Variable 5.8 mph - 0.01 in Rain Heavy Rain
7:04 PM 60.8 °F 57.2 °F 88% 30.09 in 3.0 mi North 10.4 mph - 0.06 in Rain Light Rain
7:23 PM 59.0 °F 57.2 °F 94% 30.10 in 2.0 mi NNW 5.8 mph 16.1 mph 0.13 in Rain Heavy Rain
7:32 PM 59.0 °F 57.2 °F 94% 30.10 in 1.8 mi Calm Calm - 0.18 in Rain Rain
7:41 PM 59.0 °F 57.2 °F 94% 30.11 in 2.5 mi SSW 3.5 mph - 0.20 in Rain Rain
7:48 PM 59.0 °F 57.2 °F 94% 30.10 in 3.0 mi Calm Calm - 0.22 in Rain Rain
7:51 PM 59.0 °F 57.0 °F 93% 30.05 in 3.0 mi SSW 3.5 mph - 0.23 in Rain Rain
8:51 PM 59.0 °F 55.9 °F 90% 30.00 in 10.0 mi Calm Calm - 0.03 in Rain Light Rain
9:51 PM 57.9 °F 55.9 °F 93% 30.01 in 10.0 mi Calm Calm - 0.00 in   Scattered Clouds
10:51 PM 57.9 °F 55.0 °F 90% 30.01 in 10.0 mi Calm Calm - N/A   Mostly Cloudy
11:51 PM 57.0 °F 55.0 °F 93% 30.01 in 10.0 mi Calm Calm - N/A   Clear